Tracking 19969 objects as of 13-Nov-2019
Live streaming from Space Station
objects crossing your sky now
Track the group of recently launched Starlink satellites

DELTA 1 DEB

Track DELTA 1 DEB now!
10-day predictions


NORAD ID: 8533
Int'l Code: 1972-058GG
Perigee: 608.1 km
Apogee: 795.4 km
Inclination: 98.5 °
Period: 98.7 minutes
Semi major axis: 7072 km
RCS: 0.0854 m2 (small)
Launch date: July 23, 1972
Source: United States (US)
Launch site: AIR FORCE WESTERN TEST RANGE (AFWTR)

Note: This is SATELLITE DEBRIS
aabbcc
Your satellite tracking list
Your tracking list is empty




NASA's NSSDC Master Catalog

Two Line Element Set (TLE):
1  8533U 72058GG  18235.90099010 +.00000424 +00000-0 +89534-4 0  9991
2  8533 098.4905 272.4762 0132372 183.8891 176.1292 14.59551354117012
Source of the keplerian elements: AFSPC